Location: Mauries
(43.6188°N, 0.3322°W)
Time: 20:05:45
(UTC+00:00)

Timation 1 Rocket - Pass Details

Date: 14 January 2026
Orbit: 895 x 908 km, 70.0° (Epoch: 10 February)

Event Time Altitude Azimuth Distance (km) Brightness Sun altitude
Exits shadow 05:47:39 13° 336° (NNW) 2,414 6.2 -18.5°
Maximum altitude 05:53:11 79° 63° (ENE) 926 4.4 -17.5°
Drops below altitude 10° 05:59:11 10° 150° (SSE) 2,583 7.3 -16.5°
Sets 06:01:40 0° 152° (SSE) 3,522 8.1 -16.0°
